Weather History for Lone Rock, WI

Change the Weather History Date:

Wednesday, November 13, 2013

  Actual Average Record
Temperature  
Mean Temperature 29 °F -  
Max Temperature 44 °F 44 °F 71 °F (1999)
Min Temperature 14 °F 28 °F 14 °F (2013)
Degree Days  
Heating Degree Days 36    
Moisture  
Dew Point 15 °F    
Average Humidity 54    
Maximum Humidity 84    
Minimum Humidity 36    
Precipitation  
Precipitation 0.00 in - - ()
Sea Level Pressure  
Sea Level Pressure 30.29 in    
Wind  
Wind Speed 4 mph (SW)    
Max Wind Speed 17 mph    
Max Gust Speed 23 mph    
Visibility 10 miles    
Events      
Averages and records for this station are not official NWS values.
T = Trace of Precipitation, MM = Missing Value Source: NWS Daily Summary

Daily Weather History Graph

Daily Weather History Graph

Search for Another Location

Airport:

Trip Planner

Search our weather history database for the weather conditions in past years. The results will help you decide how hot, cold, wet, or windy it might be!

Date:

Astronomy

Nov. 13, 2013 Rise Set
Actual Time 6:51 AM CST 4:38 PM CST
Civil Twilight 6:20 AM CST 5:08 PM CST
Nautical Twilight 5:46 AM CST 5:43 PM CST
Astronomical Twilight 5:12 AM CST 6:16 PM CST
Moon 2:31 PM CST (11/13) 2:38 AM CST (11/13)
Length of Visible Light 10h 47m
Length of Day
9h 46m
Waxing Gibbous, 85% of the Moon is Illuminated
Nov 13
Waxing Gibbous
Nov 17
Full
Nov 25
Last Quarter
Dec 2
New
Dec 9
First Quarter

Hourly Weather History & Observations

Time (CST) Temp. Windchill Dew Point Humidity Pressure Visibility Wind Dir Wind Speed Gust Speed Precip Events Conditions
12:56 AM 19.0 °F - 12.0 °F 74% 30.57 in 10.0 mi Calm Calm - N/A   Clear
1:56 AM 15.1 °F - 10.9 °F 84% 30.57 in 10.0 mi Calm Calm - N/A   Clear
2:56 AM 16.0 °F - 10.9 °F 81% 30.55 in 10.0 mi Calm Calm - N/A   Clear
3:56 AM 15.1 °F - 10.0 °F 80% 30.53 in 10.0 mi Calm Calm - N/A   Clear
4:56 AM 14.0 °F - 9.0 °F 80% 30.50 in 10.0 mi Calm Calm - N/A   Clear
5:56 AM 16.0 °F - 10.0 °F 77% 30.48 in 10.0 mi Calm Calm - N/A   Clear
6:56 AM 16.0 °F - 10.9 °F 81% 30.46 in 10.0 mi Calm Calm - N/A   Clear
7:56 AM 21.9 °F - 15.1 °F 75% 30.43 in 10.0 mi Calm Calm - N/A   Clear
8:56 AM 28.9 °F 20.4 °F 15.1 °F 56% 30.40 in 10.0 mi SW 9.2 mph - N/A   Clear
9:56 AM 32.0 °F 24.2 °F 14.0 °F 48% 30.37 in 10.0 mi SW 9.2 mph - N/A   Clear
10:56 AM 36.0 °F 28.5 °F 14.0 °F 41% 30.33 in 10.0 mi WSW 10.4 mph 18.4 mph N/A   Clear
11:56 AM 39.0 °F 31.8 °F 15.1 °F 38% 30.29 in 10.0 mi SW 11.5 mph - N/A   Clear
12:56 PM 42.1 °F 35.7 °F 18.0 °F 38% 30.25 in 10.0 mi SW 11.5 mph 20.7 mph N/A   Clear
1:56 PM 44.1 °F 38.1 °F 19.9 °F 38% 30.20 in 10.0 mi WSW 11.5 mph 21.9 mph N/A   Clear
2:56 PM 44.1 °F 36.5 °F 19.9 °F 38% 30.18 in 10.0 mi SSW 17.3 mph 23.0 mph N/A   Clear
3:56 PM 43.0 °F 37.2 °F 19.0 °F 38% 30.16 in 10.0 mi SSW 10.4 mph 18.4 mph N/A   Clear
4:56 PM 41.0 °F 35.2 °F 16.0 °F 36% 30.14 in 10.0 mi SW 9.2 mph 18.4 mph N/A   Clear
5:56 PM 39.0 °F 32.8 °F 17.1 °F 41% 30.13 in 10.0 mi SW 9.2 mph - N/A   Clear
6:56 PM 37.9 °F 29.6 °F 17.1 °F 43% 30.12 in 10.0 mi SSW 13.8 mph 17.3 mph N/A   Clear
7:56 PM 37.0 °F 29.8 °F 17.1 °F 44% 30.10 in 10.0 mi SSW 10.4 mph - N/A   Clear
8:56 PM 37.9 °F 30.9 °F 16.0 °F 41% 30.09 in 10.0 mi SW 10.4 mph - N/A   Clear
9:56 PM 37.0 °F 31.0 °F 16.0 °F 42% 30.09 in 10.0 mi SW 8.1 mph - N/A   Clear
10:56 PM 37.0 °F 31.0 °F 16.0 °F 42% 30.07 in 10.0 mi WSW 8.1 mph 16.1 mph N/A   Clear
11:56 PM 36.0 °F 32.1 °F 17.1 °F 46% 30.05 in 10.0 mi SW 4.6 mph - N/A   Clear